Location: Unspecified
(0.0000°N, 0.0000°E)
Time: 18:49:56
(UTC+00:00)

Tiros 1 - Pass Details

Date: 26 November 2019
Orbit: 630 x 664 km, 48.4° (Epoch: 06 December)

Event Time Altitude Azimuth Distance (km) Brightness Sun altitude
Rises 07:56:50 0° 209° (SSW) 2,965 10.5 30.1°
Reaches altitude 10° 07:59:15 10° 204° (SSW) 2,047 9.8 30.6°
Maximum altitude 08:03:49 49° 129° (SE) 831 9.4 31.6°
Drops below altitude 10° 08:08:18 10° 54° (NE) 2,019 10.2 32.7°
Sets 08:10:40 0° 49° (NE) 2,920 10.8 33.2°
